Location: Unspecified
(0.0000°N, 0.0000°E)
Time: 01:19:37
(UTC+00:00)

Transit 2A - All Passes

Search period start: 26 May 2019 00:00
Search period end: 05 June 2019 00:00
Orbit: 592 x 967 km, 66.7° (Epoch: 25 May)

Date Brightness Start Highest point End Pass type
(mag) Time Alt. Az. Time Alt. Az. Time Alt. Az.
26 May - 05:15:31 10° SSW 05:21:07 89° ESE 05:27:15 10° NNE visible
26 May - 16:10:55 10° NNE 16:13:53 16° ENE 16:16:44 10° ESE daylight
26 May - 17:52:49 10° NW 17:56:51 25° WSW 18:00:37 10° SSW daylight
27 May - 04:41:38 10° S 04:47:05 55° ESE 04:53:01 10° NNE visible
27 May - 06:28:17 10° W 06:30:17 12° WNW 06:32:20 10° NW daylight
27 May - 17:18:06 10° NW 17:22:51 45° WSW 17:27:11 10° S daylight
28 May - 04:08:04 10° S 04:13:04 33° ESE 04:18:26 10° NE visible
28 May - 05:52:01 10° WSW 05:56:07 20° WNW 06:00:25 10° NNW daylight
28 May - 16:43:49 10° NNW 16:48:49 83° WSW 16:53:22 10° SSE daylight
29 May - 03:34:57 10° SSE 03:39:03 21° ESE 03:43:23 10° ENE visible
29 May - 05:16:57 10° SW 05:21:58 32° WNW 05:27:21 10° N visible
29 May - 16:09:52 10° N 16:14:45 54° ENE 16:19:13 10° SSE daylight
30 May - 03:02:52 10° SE 03:05:02 12° ESE 03:07:15 10° E visible
30 May - 04:42:21 10° SW 04:47:51 51° WNW 04:53:48 10° N visible
30 May - 15:36:18 10° N 15:40:39 30° ENE 15:44:41 10° SE daylight
30 May - 17:21:28 10° W 17:23:25 12° WSW 17:25:19 10° SW daylight
31 May - 04:08:06 10° SSW 04:13:46 83° WNW 04:19:56 10° NNE visible
31 May - 15:03:15 10° NNE 15:06:31 17° ENE 15:09:36 10° ESE daylight
31 May - 16:45:42 10° WNW 16:49:25 22° WSW 16:52:57 10° SSW daylight
01 Jun - 03:34:09 10° S 03:39:43 61° ESE 03:45:46 10° NNE visible
01 Jun - 05:21:55 10° WNW 05:22:58 10° WNW 05:24:01 10° WNW visible
01 Jun - 16:10:52 10° NW 16:15:25 39° WSW 16:19:38 10° S daylight
02 Jun - 03:00:30 10° S 03:05:42 37° ESE 03:11:17 10° NE visible
02 Jun - 04:44:56 10° WSW 04:48:47 18° WNW 04:52:48 10° NNW visible
02 Jun - 15:36:29 10° NNW 15:41:24 73° WSW 15:45:53 10° SSE daylight
03 Jun - 02:27:16 10° SSE 02:31:41 23° ESE 02:36:21 10° ENE visible
03 Jun - 04:09:42 10° SW 04:14:38 29° WNW 04:19:53 10° N visible
03 Jun - 15:02:28 10° N 15:07:21 61° ENE 15:11:48 10° SSE daylight
04 Jun - 01:54:47 10° SE 01:57:40 14° ESE 02:00:38 10° ENE visible
04 Jun - 03:35:01 10° SW 03:40:30 46° WNW 03:46:25 10° N visible
04 Jun - 14:28:48 10° N 14:33:15 34° ENE 14:37:21 10° SE daylight
04 Jun - 16:15:06 10° W 16:16:00 10° WSW 16:16:54 10° WSW daylight
